Tracking 19293 objects as of 21-Nov-2018
HD Live streaming from Space Station
objects crossing your sky now

SPARK 2

Track SPARK 2 now!
10-day predictions


NORAD ID: 41901
Int'l Code: 2016-081D
Perigee: 697.7 km
Apogee: 734.6 km
Inclination: 98.2 °
Period: 99.0 minutes
Semi major axis: 7087 km
RCS: Unknown
Launch date: December 21, 2016
Source: People's Republic of China (PRC)
Launch site: Jiuquan Satellite Launch Center, China (JSC)

SPARK 2 is a secondary payload designed for high-resolution and hyperspectral remote sensing of Earth.
aabbcc
Your satellite tracking list
Your tracking list is empty




NASA's NSSDC Master Catalog

Two Line Element Set (TLE):
1 41901U 16081D   18325.14376626  .00000074  00000-0  27750-4 0  9991
2 41901  98.2203 260.8884 0026092 211.6721 148.2906 14.55111379101690
Source of the keplerian elements: AFSPC